Regional Weather Roundup
Issued by NWS State College, PA

Home | Current Version | Previous Version | Text Only | Print | Product List | Glossary On
Versions: 1 2 3 4 5 6 7 8 9 10 11 12 13 14 15 16 17 18 19 20 21 22 23 24 25 26 27 28 29 30 31 32 33 34 35 36 37 38 39 40 41 42 43 44 45 46 47 48 49 50
000
ASUS41 KCTP 260810
RWRCTP

REGIONAL WEATHER ROUNDUP
NATIONAL WEATHER SERVICE STATE COLLEGE PA
300 AM EST MON JAN 26 2015

Note: "fair" indicates few or no clouds below 12,000 feet with no
significant weather and/or obstructions to visibility.

* = STATION THAT DOES NOT REPORT PRECIPITATION /E.G. RAIN...SNOW...ETC/
    THUNDER OR FOG.

PAZ002>004-007>009-013>016-020>023-029>032-260900-
WESTERN PENNSYLVANIA

CITY           SKY/WX    TMP DP  RH WIND       PRES   REMARKS
ERIE           CLOUDY    17   7  64 NE12      29.88F WCI   4
MEADVILLE      LGT SNOW  17  13  84 NE13      29.78F VSB 3/4 WCI   4
FRANKLIN*      CLOUDY    19  16  86 NE10G16   29.78S WCI   8
NEW CASTLE     LGT SNOW  21  19  93 N10       29.78F FOG     WCI  10
BEAVER COUNTY  NOT AVBL
BUTLER*        CLOUDY    27  25  93 NE12      29.74F
PITTSBURGH INT LGT SNOW  28  27  96 N7        29.71F FOG
PITTSBURGH     CLOUDY    31  28  89 N3        29.69F FOG
INDIANA*       CLOUDY    28  27  93 E12G17    29.77F FOG
LATROBE        CLOUDY    34  34 100 NE5       29.72F
WASHINGTON CO* CLOUDY    30  28  93 CALM      29.71F
$$

PAZ004>006-010>012-017>019-024>028-033>037-041-042-045-046-049>053-260900-
CENTRAL PENNSYLVANIA

CITY           SKY/WX    TMP DP  RH WIND       PRES   REMARKS
BRADFORD       LGT SNOW  13   7  77 E9        29.80S VSB 1   WCI   1
DUBOIS         LGT SNOW  20  17  88 E14       29.75F VSB 3/4 WCI   7
CLEARFIELD     LGT SNOW  19  16  88 NE10      29.81F FOG     WCI   7
JOHNSTOWN      LGT SNOW  26  23  88 E8        29.69F FOG
ALTOONA        LGT SNOW  25  23  92 NE9       29.79F FOG
STATE COLLEGE  LGT SNOW  19  16  87 NE12G18   29.86S WCI   7
WILLIAMSPORT   LGT SNOW  19  12  74 NE6       29.96S WCI  11
SELINSGROVE    SNOW      21  17  84 NE8       29.94F VSB 1/2 WCI  11
FT INDIANTOWN  LGT SNOW  25  23  93 NE8       29.90F FOG
CAPITAL CITY   LGT SNOW  28  25  88 E10       29.90S FOG
HARRISBURG     SNOW      27  25  92 E6        29.89S VSB 1/2
YORK           LGT SNOW  30  27  88 E13       29.86F FOG
$$

PAZ038>040-043-044-047-048-054-055-060>062-067>071-260900-
EASTERN PENNSYLVANIA

CITY           SKY/WX    TMP DP  RH WIND       PRES   REMARKS
SCRANTON       CLOUDY    18   5  57 NE7       29.94S WCI   9
MOUNT POCONO   LGT SNOW  16   7  67 E8        29.86S WCI   5
ALLENTOWN      LGT SNOW  23  16  74 NE17      29.97R WCI   9
QUAKERTOWN*    NOT AVBL
READING        LGT SNOW  24  21  88 NE7       29.94S VSB 1
LANCASTER      LGT SNOW  26  23  88 E15       29.89F FOG     WCI  14
COATESVILLE    LGT SNOW  28  28 100 E17G25    29.89F
POTTSTOWN      LGT SNOW  24  22  91 NE8       29.97S VSB 1
BLUE BELL      CLOUDY    28  25  86 E9        29.94F
DOYLESTOWN     LGT SNOW  24  21  88 NE7       29.95S FOG
WILLOW GROVE   NOT AVBL
NORTH PHILA    CLOUDY    30  22  72 E10       29.97F
PHILADELPHIA   CLOUDY    30  23  75 NE10      29.96F
$$



USA.gov is the U.S. government's official web portal to all federal, state and local government web resources and services.